User: anonymous   Login
Location: Unspecified
(0.0000°N, 0.0000°E)
Time: 21:40:38
(UTC+00:00)
Language:

Courier 1B Rocket - Orbit

View from above orbital plane
View from above orbital plane
View from above satellite
View from above satellite

Ground track
Ground track

The orbit data is extracted from the following two-line orbital elements,

1    59U 60013B   16243.90564682 +.00000101 +00000-0 +14591-4 0  9996
2    59 028.2480 140.4104 0189333 168.7958 191.6880 13.52942418758681
Epoch (UTC): 30 August 2016 21:44:07
Eccentricity: 0.0189333
inclination: 28.2480°
perigee height: 920 km
apogee height: 1202 km
right ascension of ascending node: 140.4104°
argument of perigee: 168.7958°
revolutions per day: 13.52942418
mean anomaly at epoch: 191.6880°
orbit number at epoch: 75868

The dashed part of the orbit path shows where the satellite is in the earth's shadow,  

DLR